Time,TemperatureF,DewpointF,PressureIn,WindDirection,WindDirectionDegrees,WindSpeedMPH,WindSpeedGustMPH,Humidity,HourlyPrecipIn,Conditions,Clouds,dailyrainin,SoftwareType,DateUTC
2013-01-26 00:02:00,45.0,-99.9,-100.00,SW,225,13.0,18.0,-999,-99.99,,,-99.99,,2013-01-26 08:02:00,
2013-01-26 00:11:00,45.0,-99.9,-100.00,SW,225,11.0,17.0,-999,-99.99,,,-99.99,,2013-01-26 08:11:00,
2013-01-26 00:22:00,45.0,-99.9,-100.00,SW,225,11.0,17.0,-999,-99.99,,,-99.99,,2013-01-26 08:22:00,
2013-01-26 00:32:00,45.0,-99.9,-100.00,SW,225,9.0,15.0,-999,-99.99,,,-99.99,,2013-01-26 08:32:00,
2013-01-26 00:42:00,44.0,-99.9,-100.00,West,270,35.0,42.0,-999,-99.99,,,-99.99,,2013-01-26 08:42:00,
2013-01-26 00:54:00,44.0,-99.9,-100.00,West,270,14.0,42.0,-999,-99.99,,,-99.99,,2013-01-26 08:54:00,
2013-01-26 01:02:00,44.0,-99.9,-100.00,West,270,14.0,42.0,-999,-99.99,,,-99.99,,2013-01-26 09:02:00,
2013-01-26 01:11:00,44.0,-99.9,-100.00,West,270,26.0,31.0,-999,-99.99,,,-99.99,,2013-01-26 09:11:00,
2013-01-26 01:22:00,44.0,-99.9,-100.00,West,270,26.0,31.0,-999,-99.99,,,-99.99,,2013-01-26 09:22:00,
2013-01-26 01:32:00,45.0,-99.9,-100.00,West,270,23.0,30.0,-999,-99.99,,,-99.99,,2013-01-26 09:32:00,
2013-01-26 01:42:00,45.0,-99.9,-100.00,SW,225,12.0,29.0,-999,-99.99,,,-99.99,,2013-01-26 09:42:00,
2013-01-26 01:52:00,45.0,-99.9,-100.00,SW,225,12.0,29.0,-999,-99.99,,,-99.99,,2013-01-26 09:52:00,
2013-01-26 02:02:00,45.0,-99.9,-100.00,West,270,21.0,27.0,-999,-99.99,,,-99.99,,2013-01-26 10:02:00,
2013-01-26 02:12:00,45.0,-99.9,-100.00,SW,225,8.0,27.0,-999,-99.99,,,-99.99,,2013-01-26 10:12:00,
2013-01-26 02:22:00,45.0,-99.9,-100.00,SW,225,8.0,27.0,-999,-99.99,,,-99.99,,2013-01-26 10:22:00,
2013-01-26 02:32:00,45.0,-99.9,-100.00,SW,225,10.0,22.0,-999,-99.99,,,-99.99,,2013-01-26 10:32:00,
2013-01-26 02:43:00,45.0,-99.9,-100.00,SW,225,12.0,18.0,-999,-99.99,,,-99.99,,2013-01-26 10:43:00,
2013-01-26 02:52:00,45.0,-99.9,-100.00,West,270,17.0,22.0,-999,-99.99,,,-99.99,,2013-01-26 10:52:00,
2013-01-26 03:02:00,45.0,-99.9,-100.00,West,270,17.0,22.0,-999,-99.99,,,-99.99,,2013-01-26 11:02:00,
2013-01-26 03:12:00,45.0,-99.9,-100.00,West,270,18.0,25.0,-999,-99.99,,,-99.99,,2013-01-26 11:12:00,
2013-01-26 03:22:00,45.0,-99.9,-100.00,West,270,18.0,25.0,-999,-99.99,,,-99.99,,2013-01-26 11:22:00,
2013-01-26 03:32:00,45.0,-99.9,-100.00,West,270,17.0,25.0,-999,-99.99,,,-99.99,,2013-01-26 11:32:00,
2013-01-26 03:42:00,46.0,-99.9,-100.00,West,270,21.0,22.0,-999,-99.99,,,-99.99,,2013-01-26 11:42:00,
2013-01-26 03:53:00,46.0,-99.9,-100.00,West,270,21.0,22.0,-999,-99.99,,,-99.99,,2013-01-26 11:53:00,
2013-01-26 04:02:00,46.0,-99.9,-100.00,NW,315,20.0,24.0,-999,-99.99,,,-99.99,,2013-01-26 12:02:00,
2013-01-26 04:12:00,45.0,-99.9,-100.00,West,270,17.0,26.0,-999,-99.99,,,-99.99,,2013-01-26 12:12:00,
2013-01-26 04:23:00,45.0,-99.9,-100.00,West,270,17.0,26.0,-999,-99.99,,,-99.99,,2013-01-26 12:23:00,
2013-01-26 04:33:00,46.0,-99.9,-100.00,West,270,19.0,26.0,-999,-99.99,,,-99.99,,2013-01-26 12:33:00,
2013-01-26 04:42:00,46.0,-99.9,-100.00,NW,315,20.0,24.0,-999,-99.99,,,-99.99,,2013-01-26 12:42:00,
2013-01-26 04:53:00,46.0,-99.9,-100.00,NW,315,20.0,24.0,-999,-99.99,,,-99.99,,2013-01-26 12:53:00,
2013-01-26 05:04:00,46.0,-99.9,-100.00,NW,315,17.0,22.0,-999,-99.99,,,-99.99,,2013-01-26 13:04:00,
2013-01-26 05:12:00,46.0,-99.9,-100.00,West,270,18.0,22.0,-999,-99.99,,,-99.99,,2013-01-26 13:12:00,
2013-01-26 05:22:00,46.0,-99.9,-100.00,West,270,18.0,22.0,-999,-99.99,,,-99.99,,2013-01-26 13:22:00,
2013-01-26 05:33:00,46.0,-99.9,-100.00,West,270,20.0,21.0,-999,-99.99,,,-99.99,,2013-01-26 13:33:00,
2013-01-26 05:42:00,45.0,-99.9,-100.00,NW,315,19.0,24.0,-999,-99.99,,,-99.99,,2013-01-26 13:42:00,
2013-01-26 05:53:00,45.0,-99.9,-100.00,NW,315,19.0,24.0,-999,-99.99,,,-99.99,,2013-01-26 13:53:00,
2013-01-26 06:03:00,45.0,-99.9,-100.00,West,270,15.0,24.0,-999,-99.99,,,-99.99,,2013-01-26 14:03:00,
2013-01-26 06:12:00,46.0,-99.9,-100.00,West,270,18.0,21.0,-999,-99.99,,,-99.99,,2013-01-26 14:12:00,
2013-01-26 06:22:00,46.0,-99.9,-100.00,West,270,18.0,21.0,-999,-99.99,,,-99.99,,2013-01-26 14:22:00,
2013-01-26 06:32:00,46.0,-99.9,-100.00,West,270,20.0,21.0,-999,-99.99,,,-99.99,,2013-01-26 14:32:00,
2013-01-26 06:43:00,46.0,-99.9,-100.00,West,270,19.0,21.0,-999,-99.99,,,-99.99,,2013-01-26 14:43:00,
2013-01-26 06:53:00,46.0,-99.9,-100.00,West,270,19.0,21.0,-999,-99.99,,,-99.99,,2013-01-26 14:53:00,
2013-01-26 07:03:00,45.0,-99.9,-100.00,West,270,16.0,20.0,-999,-99.99,,,-99.99,,2013-01-26 15:03:00,
2013-01-26 07:12:00,46.0,-99.9,-100.00,West,270,17.0,19.0,-999,-99.99,,,-99.99,,2013-01-26 15:12:00,
2013-01-26 07:22:00,46.0,-99.9,-100.00,West,270,17.0,19.0,-999,-99.99,,,-99.99,,2013-01-26 15:22:00,
2013-01-26 07:33:00,43.0,-99.9,-100.00,NW,315,23.0,37.0,-999,-99.99,,,-99.99,,2013-01-26 15:33:00,
2013-01-26 07:43:00,43.0,-99.9,-100.00,North,0,9.0,37.0,-999,-99.99,,,-99.99,,2013-01-26 15:43:00,
2013-01-26 07:53:00,43.0,-99.9,-100.00,North,0,9.0,37.0,-999,-99.99,,,-99.99,,2013-01-26 15:53:00,
2013-01-26 08:03:00,43.0,-99.9,-100.00,West,270,4.0,24.0,-999,-99.99,,,-99.99,,2013-01-26 16:03:00,
2013-01-26 08:13:00,43.0,-99.9,-100.00,SE,135,0.0,11.0,-999,-99.99,,,-99.99,,2013-01-26 16:13:00,
2013-01-26 08:22:00,43.0,-99.9,-100.00,SE,135,0.0,11.0,-999,-99.99,,,-99.99,,2013-01-26 16:22:00,
2013-01-26 08:33:00,43.0,-99.9,-100.00,SW,225,7.0,10.0,-999,-99.99,,,-99.99,,2013-01-26 16:33:00,
2013-01-26 08:43:00,43.0,-99.9,-100.00,SE,135,0.0,10.0,-999,-99.99,,,-99.99,,2013-01-26 16:43:00,
2013-01-26 08:53:00,43.0,-99.9,-100.00,SE,135,0.0,10.0,-999,-99.99,,,-99.99,,2013-01-26 16:53:00,
2013-01-26 09:03:00,43.0,-99.9,-100.00,NW,315,9.0,16.0,-999,-99.99,,,-99.99,,2013-01-26 17:03:00,
2013-01-26 09:13:00,43.0,-99.9,-100.00,NW,315,14.0,17.0,-999,-99.99,,,-99.99,,2013-01-26 17:13:00,
2013-01-26 09:23:00,43.0,-99.9,-100.00,NW,315,14.0,17.0,-999,-99.99,,,-99.99,,2013-01-26 17:23:00,
2013-01-26 09:33:00,43.0,-99.9,-100.00,West,270,18.0,21.0,-999,-99.99,,,-99.99,,2013-01-26 17:33:00,
2013-01-26 09:42:00,44.0,-99.9,-100.00,West,270,12.0,21.0,-999,-99.99,,,-99.99,,2013-01-26 17:42:00,
2013-01-26 09:53:00,44.0,-99.9,-100.00,West,270,12.0,21.0,-999,-99.99,,,-99.99,,2013-01-26 17:53:00,
2013-01-26 10:03:00,44.0,-99.9,-100.00,West,270,14.0,21.0,-999,-99.99,,,-99.99,,2013-01-26 18:03:00,
2013-01-26 10:12:00,45.0,-99.9,-100.00,West,270,16.0,17.0,-999,-99.99,,,-99.99,,2013-01-26 18:12:00,
2013-01-26 10:22:00,45.0,-99.9,-100.00,West,270,16.0,17.0,-999,-99.99,,,-99.99,,2013-01-26 18:22:00,
2013-01-26 10:33:00,47.0,-99.9,-100.00,West,270,15.0,17.0,-999,-99.99,,,-99.99,,2013-01-26 18:33:00,
2013-01-26 10:42:00,46.0,-99.9,-100.00,West,270,12.0,17.0,-999,-99.99,,,-99.99,,2013-01-26 18:42:00,
2013-01-26 10:53:00,46.0,-99.9,-100.00,West,270,12.0,17.0,-999,-99.99,,,-99.99,,2013-01-26 18:53:00,
2013-01-26 11:03:00,45.0,-99.9,-100.00,West,270,16.0,22.0,-999,-99.99,,,-99.99,,2013-01-26 19:03:00,
2013-01-26 11:12:00,46.0,-99.9,-100.00,West,270,12.0,22.0,-999,-99.99,,,-99.99,,2013-01-26 19:12:00,
2013-01-26 11:23:00,46.0,-99.9,-100.00,West,270,12.0,22.0,-999,-99.99,,,-99.99,,2013-01-26 19:23:00,
2013-01-26 11:33:00,47.0,-99.9,-100.00,West,270,16.0,24.0,-999,-99.99,,,-99.99,,2013-01-26 19:33:00,
2013-01-26 11:43:00,45.0,-99.9,-100.00,NW,315,21.0,27.0,-999,-99.99,,,-99.99,,2013-01-26 19:43:00,
2013-01-26 11:53:00,45.0,-99.9,-100.00,NW,315,21.0,27.0,-999,-99.99,,,-99.99,,2013-01-26 19:53:00,
2013-01-26 12:02:00,44.0,-99.9,-100.00,NW,315,16.0,27.0,-999,-99.99,,,-99.99,,2013-01-26 20:02:00,
2013-01-26 12:12:00,44.0,-99.9,-100.00,NW,315,12.0,24.0,-999,-99.99,,,-99.99,,2013-01-26 20:12:00,
2013-01-26 12:22:00,44.0,-99.9,-100.00,NW,315,12.0,24.0,-999,-99.99,,,-99.99,,2013-01-26 20:22:00,
2013-01-26 12:32:00,44.0,-99.9,-100.00,West,270,18.0,24.0,-999,-99.99,,,-99.99,,2013-01-26 20:32:00,
2013-01-26 12:42:00,47.0,-99.9,-100.00,West,270,13.0,24.0,-999,-99.99,,,-99.99,,2013-01-26 20:42:00,
2013-01-26 12:52:00,47.0,-99.9,-100.00,West,270,13.0,24.0,-999,-99.99,,,-99.99,,2013-01-26 20:52:00,
2013-01-26 13:03:00,49.0,-99.9,-100.00,West,270,13.0,18.0,-999,-99.99,,,-99.99,,2013-01-26 21:03:00,
2013-01-26 13:12:00,49.0,-99.9,-100.00,West,270,16.0,19.0,-999,-99.99,,,-99.99,,2013-01-26 21:12:00,
2013-01-26 13:23:00,49.0,-99.9,-100.00,West,270,16.0,19.0,-999,-99.99,,,-99.99,,2013-01-26 21:23:00,
2013-01-26 13:32:00,49.0,-99.9,-100.00,West,270,14.0,19.0,-999,-99.99,,,-99.99,,2013-01-26 21:32:00,
2013-01-26 13:43:00,45.0,-99.9,-100.00,NW,315,14.0,22.0,-999,-99.99,,,-99.99,,2013-01-26 21:43:00,
2013-01-26 13:52:00,45.0,-99.9,-100.00,NW,315,14.0,22.0,-999,-99.99,,,-99.99,,2013-01-26 21:52:00,
2013-01-26 14:02:00,48.0,-99.9,-100.00,NW,315,20.0,22.0,-999,-99.99,,,-99.99,,2013-01-26 22:02:00,
2013-01-26 14:12:00,47.0,-99.9,-100.00,NW,315,23.0,27.0,-999,-99.99,,,-99.99,,2013-01-26 22:12:00,
2013-01-26 14:22:00,47.0,-99.9,-100.00,NW,315,23.0,27.0,-999,-99.99,,,-99.99,,2013-01-26 22:22:00,
2013-01-26 14:32:00,47.0,-99.9,-100.00,NW,315,23.0,27.0,-999,-99.99,,,-99.99,,2013-01-26 22:32:00,
2013-01-26 14:42:00,47.0,-99.9,-100.00,NW,315,23.0,27.0,-999,-99.99,,,-99.99,,2013-01-26 22:42:00,
2013-01-26 15:02:00,49.0,-99.9,-100.00,NW,315,8.0,12.0,-999,-99.99,,,-99.99,,2013-01-26 23:02:00,
2013-01-26 15:12:00,45.0,-99.9,-100.00,NW,315,17.0,22.0,-999,-99.99,,,-99.99,,2013-01-26 23:12:00,
2013-01-26 15:22:00,45.0,-99.9,-100.00,NW,315,17.0,22.0,-999,-99.99,,,-99.99,,2013-01-26 23:22:00,
2013-01-26 15:33:00,44.0,-99.9,-100.00,NW,315,12.0,22.0,-999,-99.99,,,-99.99,,2013-01-26 23:33:00,
2013-01-26 15:42:00,45.0,-99.9,-100.00,NW,315,7.0,21.0,-999,-99.99,,,-99.99,,2013-01-26 23:42:00,
2013-01-26 15:52:00,45.0,-99.9,-100.00,NW,315,7.0,21.0,-999,-99.99,,,-99.99,,2013-01-26 23:52:00,
2013-01-26 16:02:00,44.0,-99.9,-100.00,NW,315,10.0,16.0,-999,-99.99,,,-99.99,,2013-01-27 00:02:00,
2013-01-26 16:12:00,43.0,-99.9,-100.00,NW,315,12.0,20.0,-999,-99.99,,,-99.99,,2013-01-27 00:12:00,
2013-01-26 16:22:00,43.0,-99.9,-100.00,NW,315,12.0,20.0,-999,-99.99,,,-99.99,,2013-01-27 00:22:00,
2013-01-26 16:32:00,43.0,-99.9,-100.00,NW,315,12.0,20.0,-999,-99.99,,,-99.99,,2013-01-27 00:32:00,
2013-01-26 16:42:00,44.0,-99.9,-100.00,West,270,13.0,15.0,-999,-99.99,,,-99.99,,2013-01-27 00:42:00,
2013-01-26 16:52:00,44.0,-99.9,-100.00,West,270,13.0,15.0,-999,-99.99,,,-99.99,,2013-01-27 00:52:00,
2013-01-26 17:02:00,44.0,-99.9,-100.00,West,270,10.0,15.0,-999,-99.99,,,-99.99,,2013-01-27 01:02:00,
2013-01-26 17:11:00,44.0,-99.9,-100.00,West,270,7.0,12.0,-999,-99.99,,,-99.99,,2013-01-27 01:11:00,
2013-01-26 17:22:00,44.0,-99.9,-100.00,West,270,7.0,12.0,-999,-99.99,,,-99.99,,2013-01-27 01:22:00,
2013-01-26 17:32:00,44.0,-99.9,-100.00,West,270,6.0,11.0,-999,-99.99,,,-99.99,,2013-01-27 01:32:00,
2013-01-26 17:42:00,44.0,-99.9,-100.00,West,270,9.0,10.0,-999,-99.99,,,-99.99,,2013-01-27 01:42:00,
2013-01-26 17:52:00,44.0,-99.9,-100.00,West,270,9.0,10.0,-999,-99.99,,,-99.99,,2013-01-27 01:52:00,
2013-01-26 18:02:00,45.0,-99.9,-100.00,SW,225,6.0,11.0,-999,-99.99,,,-99.99,,2013-01-27 02:02:00,
2013-01-26 18:12:00,44.0,-99.9,-100.00,NW,315,7.0,17.0,-999,-99.99,,,-99.99,,2013-01-27 02:12:00,
2013-01-26 18:22:00,44.0,-99.9,-100.00,NW,315,7.0,17.0,-999,-99.99,,,-99.99,,2013-01-27 02:22:00,
2013-01-26 18:32:00,43.0,-99.9,-100.00,NW,315,6.0,17.0,-999,-99.99,,,-99.99,,2013-01-27 02:32:00,
2013-01-26 18:42:00,44.0,-99.9,-100.00,NW,315,11.0,12.0,-999,-99.99,,,-99.99,,2013-01-27 02:42:00,
2013-01-26 18:52:00,44.0,-99.9,-100.00,NW,315,11.0,12.0,-999,-99.99,,,-99.99,,2013-01-27 02:52:00,
2013-01-26 19:02:00,44.0,-99.9,-100.00,NW,315,8.0,12.0,-999,-99.99,,,-99.99,,2013-01-27 03:02:00,
2013-01-26 19:12:00,44.0,-99.9,-100.00,NE,45,3.0,12.0,-999,-99.99,,,-99.99,,2013-01-27 03:12:00,
2013-01-26 19:22:00,44.0,-99.9,-100.00,NE,45,3.0,12.0,-999,-99.99,,,-99.99,,2013-01-27 03:22:00,
2013-01-26 19:32:00,44.0,-99.9,-100.00,East,90,3.0,11.0,-999,-99.99,,,-99.99,,2013-01-27 03:32:00,
2013-01-26 19:42:00,44.0,-99.9,-100.00,North,0,4.0,11.0,-999,-99.99,,,-99.99,,2013-01-27 03:42:00,
2013-01-26 19:52:00,44.0,-99.9,-100.00,North,0,4.0,11.0,-999,-99.99,,,-99.99,,2013-01-27 03:52:00,
2013-01-26 20:02:00,44.0,-99.9,-100.00,SE,135,1.0,10.0,-999,-99.99,,,-99.99,,2013-01-27 04:02:00,
2013-01-26 20:12:00,43.0,-99.9,-100.00,South,180,1.0,6.0,-999,-99.99,,,-99.99,,2013-01-27 04:12:00,
2013-01-26 20:22:00,43.0,-99.9,-100.00,South,180,1.0,6.0,-999,-99.99,,,-99.99,,2013-01-27 04:22:00,
2013-01-26 20:32:00,43.0,-99.9,-100.00,SE,135,3.0,4.0,-999,-99.99,,,-99.99,,2013-01-27 04:32:00,
2013-01-26 20:42:00,42.0,-99.9,-100.00,SE,135,3.0,6.0,-999,-99.99,,,-99.99,,2013-01-27 04:42:00,
2013-01-26 20:52:00,42.0,-99.9,-100.00,SE,135,3.0,6.0,-999,-99.99,,,-99.99,,2013-01-27 04:52:00,
2013-01-26 21:04:00,42.0,-99.9,-100.00,SE,135,6.0,7.0,-999,-99.99,,,-99.99,,2013-01-27 05:04:00,
2013-01-26 21:12:00,42.0,-99.9,-100.00,SE,135,2.0,8.0,-999,-99.99,,,-99.99,,2013-01-27 05:12:00,
2013-01-26 21:22:00,42.0,-99.9,-100.00,SE,135,2.0,8.0,-999,-99.99,,,-99.99,,2013-01-27 05:22:00,
2013-01-26 21:32:00,42.0,-99.9,-100.00,SE,135,4.0,8.0,-999,-99.99,,,-99.99,,2013-01-27 05:32:00,
2013-01-26 21:42:00,42.0,-99.9,-100.00,SE,135,4.0,5.0,-999,-99.99,,,-99.99,,2013-01-27 05:42:00,
2013-01-26 21:52:00,42.0,-99.9,-100.00,SE,135,4.0,5.0,-999,-99.99,,,-99.99,,2013-01-27 05:52:00,
2013-01-26 22:02:00,42.0,-99.9,-100.00,SE,135,4.0,5.0,-999,-99.99,,,-99.99,,2013-01-27 06:02:00,
2013-01-26 22:11:00,42.0,-99.9,-100.00,South,180,4.0,5.0,-999,-99.99,,,-99.99,,2013-01-27 06:11:00,
2013-01-26 22:22:00,42.0,-99.9,-100.00,South,180,4.0,5.0,-999,-99.99,,,-99.99,,2013-01-27 06:22:00,
2013-01-26 22:32:00,42.0,-99.9,-100.00,SE,135,4.0,9.0,-999,-99.99,,,-99.99,,2013-01-27 06:32:00,
2013-01-26 22:42:00,42.0,-99.9,-100.00,SE,135,6.0,9.0,-999,-99.99,,,-99.99,,2013-01-27 06:42:00,
2013-01-26 22:52:00,42.0,-99.9,-100.00,SE,135,6.0,9.0,-999,-99.99,,,-99.99,,2013-01-27 06:52:00,
2013-01-26 23:02:00,42.0,-99.9,-100.00,South,180,6.0,8.0,-999,-99.99,,,-99.99,,2013-01-27 07:02:00,
2013-01-26 23:14:00,41.0,-99.9,-100.00,SE,135,4.0,7.0,-999,-99.99,,,-99.99,,2013-01-27 07:14:00,
2013-01-26 23:22:00,41.0,-99.9,-100.00,SE,135,4.0,7.0,-999,-99.99,,,-99.99,,2013-01-27 07:22:00,
2013-01-26 23:32:00,41.0,-99.9,-100.00,SE,135,5.0,6.0,-999,-99.99,,,-99.99,,2013-01-27 07:32:00,
2013-01-26 23:42:00,41.0,-99.9,-100.00,SE,135,3.0,6.0,-999,-99.99,,,-99.99,,2013-01-27 07:42:00,
2013-01-26 23:52:00,41.0,-99.9,-100.00,SE,135,3.0,6.0,-999,-99.99,,,-99.99,,2013-01-27 07:52:00,